Weather History for Westfield, MA

Change the Weather History Date:

Monday, December 2, 2013

  Actual Average Record
Temperature  
Mean Temperature 34 °F -  
Max Temperature 41 °F 41 °F 62 °F (1998)
Min Temperature 28 °F 24 °F 10 °F (2000)
Degree Days  
Heating Degree Days 30    
Moisture  
Dew Point 31 °F    
Average Humidity 85    
Maximum Humidity 96    
Minimum Humidity 76    
Precipitation  
Precipitation 0.00 in - - ()
Sea Level Pressure  
Sea Level Pressure 29.97 in    
Wind  
Wind Speed 3 mph (North)    
Max Wind Speed 6 mph    
Max Gust Speed -    
Visibility 7 miles    
Events Fog    
Averages and records for this station are not official NWS values.
T = Trace of Precipitation, MM = Missing Value Source: NWS Daily Summary

Daily Weather History Graph

Daily Weather History Graph

Search for Another Location

Airport:

Trip Planner

Search our weather history database for the weather conditions in past years. The results will help you decide how hot, cold, wet, or windy it might be!

Date:

Astronomy

Dec. 02, 2013 Rise Set
Actual Time 7:01 AM EST 4:19 PM EST
Civil Twilight 6:29 AM EST 4:50 PM EST
Nautical Twilight 5:54 AM EST 5:25 PM EST
Astronomical Twilight 5:21 AM EST 5:59 PM EST
Moon 6:22 AM EST (12/2) 4:20 PM EST (12/2)
Length of Visible Light 10h 21m
Length of Day
9h 18m
Waning Crescent, 0% of the Moon is Illuminated
Dec 2
Waning Crescent
Dec 2
New
Dec 9
First Quarter
Dec 17
Full
Dec 25
Last Quarter

Hourly Weather History & Observations

Time (EST) Temp. Windchill Dew Point Humidity Pressure Visibility Wind Dir Wind Speed Gust Speed Precip Events Conditions
12:36 AM 35.1 °F 31.0 °F 30.9 °F 85% 30.01 in 10.0 mi NNE 4.6 mph - N/A   Overcast
12:53 AM 35.1 °F 32.2 °F 30.9 °F 85% 30.03 in 10.0 mi NNW 3.5 mph - N/A   Overcast
1:07 AM 36.0 °F 33.3 °F 30.9 °F 82% 30.01 in 10.0 mi North 3.5 mph - N/A   Overcast
1:53 AM 36.0 °F 33.3 °F 30.9 °F 82% 30.03 in 10.0 mi NNE 3.5 mph - N/A   Overcast
2:53 AM 36.0 °F 33.3 °F 30.0 °F 79% 30.02 in 10.0 mi North 3.5 mph - N/A   Overcast
3:53 AM 35.1 °F 30.1 °F 30.0 °F 82% 30.00 in 10.0 mi North 5.8 mph - N/A   Overcast
4:53 AM 36.0 °F 33.3 °F 30.0 °F 79% 30.01 in 10.0 mi NNE 3.5 mph - N/A   Overcast
5:12 AM 36.0 °F 32.1 °F 30.0 °F 79% 29.99 in 10.0 mi NW 4.6 mph - N/A   Overcast
5:53 AM 36.0 °F 31.1 °F 30.0 °F 79% 30.01 in 10.0 mi North 5.8 mph - N/A   Overcast
6:53 AM 36.0 °F 32.1 °F 30.0 °F 79% 29.99 in 10.0 mi NNE 4.6 mph - N/A   Overcast
7:53 AM 36.0 °F 33.3 °F 30.9 °F 82% 30.01 in 10.0 mi North 3.5 mph - N/A   Overcast
8:53 AM 37.9 °F 34.4 °F 32.0 °F 79% 30.01 in 10.0 mi North 4.6 mph - N/A   Overcast
9:53 AM 37.9 °F 35.5 °F 33.1 °F 83% 30.01 in 10.0 mi NNW 3.5 mph - N/A   Overcast
10:53 AM 39.0 °F - 33.1 °F 79% 29.99 in 10.0 mi Calm Calm - N/A   Overcast
11:18 AM 39.0 °F 36.8 °F 33.1 °F 79% 29.97 in 10.0 mi NNE 3.5 mph - N/A   Overcast
11:44 AM 39.0 °F - 34.0 °F 82% 29.96 in 10.0 mi Calm Calm - N/A   Overcast
11:53 AM 39.0 °F 36.8 °F 34.0 °F 82% 29.98 in 10.0 mi NNE 3.5 mph - N/A   Overcast
12:53 PM 39.9 °F - 34.0 °F 79% 29.96 in 10.0 mi Calm Calm - N/A   Overcast
1:20 PM 39.9 °F - 34.0 °F 79% 29.94 in 10.0 mi Calm Calm - N/A   Overcast
1:53 PM 39.9 °F - 34.0 °F 79% 29.94 in 10.0 mi Calm Calm - N/A   Overcast
2:53 PM 41.0 °F 39.0 °F 34.0 °F 76% 29.93 in 10.0 mi East 3.5 mph - N/A   Overcast
3:53 PM 39.9 °F - 34.0 °F 79% 29.93 in 10.0 mi Calm Calm - N/A   Overcast
4:32 PM 39.9 °F - 34.0 °F 79% 29.93 in 10.0 mi Calm Calm - N/A   Overcast
4:53 PM 39.0 °F 36.8 °F 34.0 °F 82% 29.96 in 10.0 mi South 3.5 mph - N/A   Overcast
5:28 PM 39.0 °F - 34.0 °F 82% 29.93 in 10.0 mi Calm Calm - N/A   Overcast
5:53 PM 37.9 °F - 34.0 °F 86% 29.95 in 10.0 mi Calm Calm - N/A   Overcast
6:53 PM 33.1 °F - 30.9 °F 92% 29.95 in 9.0 mi Calm Calm - N/A   Clear
7:53 PM 32.0 °F - 28.9 °F 88% 29.95 in 1.8 mi Calm Calm - N/A   Clear
8:08 PM 30.0 °F 26.5 °F 28.0 °F 92% 29.93 in 3.0 mi NW 3.5 mph - N/A   Partly Cloudy
8:53 PM 28.9 °F - 28.0 °F 96% 29.95 in 6.0 mi Calm Calm - N/A   Clear
9:08 PM 28.9 °F - 26.1 °F 89% 29.93 in 8.0 mi Calm Calm - N/A   Scattered Clouds
9:18 PM 28.9 °F - 26.1 °F 89% 29.93 in 5.0 mi Calm Calm - N/A   Mostly Cloudy
9:43 PM 28.9 °F - 28.0 °F 96% 29.93 in 1.8 mi Calm Calm - N/A   Overcast
9:53 PM 28.9 °F - 28.0 °F 96% 29.96 in 1.0 mi Calm Calm - N/A   Mist
10:05 PM 30.0 °F - 28.0 °F 92% 29.93 in 0.5 mi Calm Calm - N/A Fog Light Freezing Fog
10:15 PM 30.0 °F - 28.0 °F 92% 29.93 in 0.2 mi Calm Calm - N/A Fog Light Freezing Fog
10:53 PM 30.9 °F - 30.0 °F 96% 29.95 in 0.2 mi Calm Calm - N/A Fog Light Freezing Fog
11:03 PM 32.0 °F - 30.0 °F 92% 29.93 in 0.2 mi Calm Calm - N/A Fog Fog
11:18 PM 30.9 °F - 30.0 °F 96% 29.94 in 0.2 mi Calm Calm - N/A Fog Light Freezing Fog
11:53 PM 32.0 °F 27.5 °F 30.9 °F 96% 29.95 in 0.2 mi NNW 4.6 mph - N/A Fog Fog